カタログに戻る

COSMOS 1867 COOLANT

運用中LEO
NORAD 43324·DEBRIS·🇷🇺 Russia

打ち上げ Jul 10, 1987 から Baikonur Cosmodrome

Loading…

次のパス (今後24時間)

TLE

最新Source: Space-Track

元期: Sep 13, 2026, 06:06 UTC

1 43324U 87060AR  26256.25453659  .00000140  00000-0  86224-4 0  9998
2 43324  65.0055 125.9456 0019083 282.9326  76.9628 14.33838714637527

AllMySatでCOSMOS 1867 COOLANTをリアルタイム追跡

Download on the App Store